Terug naar catalogus

FENGYUN 1C DEB

ActiefSSO
NORAD 29956·DEBRIS·🇨🇳 China

Gelanceerd May 10, 1999 vanaf Taiyuan Satellite Launch Center

Loading…

Volgende Passages (komende 24 uur)

TLE

VersSource: Space-Track

Epoch: Sep 14, 2026, 14:03 UTC

1 29956U 99025KE  26257.58551440 -.00000037  00000-0  34696-5 0  9994
2 29956  98.7661 283.0512 0052712 322.1720 207.5479 14.06228611  9223

Volg FENGYUN 1C DEB in realtime met AllMySat

Download on the App Store